Regional Weather Roundup
Issued by NWS

Home | Current Version | Previous Version | Text Only | Print | Product List | Glossary On
Versions: 1 2 3 4 5 6 7 8 9 10 11 12 13 14 15 16 17 18 19 20 21 22 23 24 25 26 27 28 29 30 31 32 33 34 35 36 37 38 39 40 41 42 43 44 45 46 47 48 49 50
000
ASUS44 KFWD 171915
RWRTX
NORTH TEXAS HOURLY WEATHER ROUNDUP
NATIONAL WEATHER SERVICE FORT WORTH TX
200 PM CDT TUE OCT 17 2017

NOTE: "FAIR" INDICATES FEW OR NO CLOUDS BELOW 12,000 FEET WITH NO
SIGNIFICANT WEATHER AND/OR OBSTRUCTIONS TO VISIBILITY.

TXZ118-119-172000-
DALLAS/FORT WORTH METROPLEX

CITY           SKY/WX    TMP DP  RH WIND       PRES   REMARKS
DFW AIRPORT    SUNNY     73  40  30 SE8       30.22F
DALLAS LOVE    SUNNY     72  39  30 SE8       30.24F
FTW MEACHAM    SUNNY     74  44  34 VRB7      30.23F
DAL-EXECUTIVE  SUNNY     72  42  34 VRB3      30.24F
FTW-ALLIANCE   SUNNY     73  41  31 VRB6G17   30.23F
FTW-NAS-JRB    SUNNY     73  41  31 SE7       30.24F
FTW-SPINKS     SUNNY     73  41  31 SE5       30.25F
ARLINGTON      SUNNY     71  42  35 VRB6      30.24F
GRAND PRAIRIE  SUNNY     72  39  30 E7        30.26F
ADDISON        SUNNY     72  39  30 SE5       30.24F
MESQUITE       SUNNY     72  37  28 SE5       30.25F
LANCASTER      SUNNY     71  38  30 E3        30.25F
$$

TXZ091>094-102>105-117-120-121-131>134-172000-
NORTH CENTRAL TEXAS

CITY           SKY/WX    TMP DP  RH WIND       PRES   REMARKS
SHRMAN/DENISON SUNNY     71  42  35 S5        30.25F
GAINESVILLE    SUNNY     70  41  34 SE7       30.25F
BOWIE          SUNNY     72  44  36 S6        30.22F
BRIDGEPORT     SUNNY     73  42  32 SW5       30.25F
DECATUR        SUNNY     71  41  34 S8        30.22F
DENTON         SUNNY     72  42  34 VRB3      30.23F
MCKINNEY       SUNNY     71  42  35 E7        30.24F
BONHAM         SUNNY     69  40  33 S7        30.25F
GREENVILLE     SUNNY     73  37  27 CALM      30.24F
ROCKWALL       SUNNY     71  41  33 S6        30.24F
TERRELL        SUNNY     73  36  25 S5        30.24F
WAXAHACHIE     SUNNY     72  42  33 S7        30.25F
CLEBURNE       SUNNY     72  43  35 VRB6G12   30.25F
GRANBURY       SUNNY     74  43  32 SE5       30.24F
$$

TXZ083>090-098>101-113>116-127>130-139>142-154-155-172000-
WESTERN NORTH TEXAS

CITY           SKY/WX    TMP DP  RH WIND       PRES   REMARKS
WICHITA FALLS  SUNNY     74  42  31 S13       30.20F
WF-KICKAPOO    SUNNY     74  40  29 S7        30.23F
VERNON         SUNNY     77  30  18 S14       30.19F
ABILENE        SUNNY     73  38  27 S13       30.23F
ABILENE-DYESS  SUNNY     75  43  30 S12       30.21F
GRAHAM         SUNNY     75  41  28 SE7       30.19F
BRECKENRIDGE   SUNNY     78  35  20 S8G23     30.21F HAZE
CISCO          SUNNY     73  37  27 S8G15     30.25F
EASTLAND       SUNNY     73  41  31 SW7       30.23F
RANGER         SUNNY     73  40  30 SW6       30.23F
MINERAL WELLS  SUNNY     74  38  27 S9        30.21F
STEPHENVILLE   SUNNY     73  38  28 S3        30.26F
COMANCHE       SUNNY     75  42  29 S3        30.24F
BROWNWOOD      SUNNY     75  36  23 SW5       30.24F
COLEMAN        SUNNY     75  36  24 SW7       30.24F
$$

TXZ143>147-156>162-174-175-172000-
CENTRAL TEXAS

CITY           SKY/WX    TMP DP  RH WIND       PRES   REMARKS
WACO           SUNNY     73  40  30 SE6       30.24F
WACO-TSTC      SUNNY     75  37  25 VRB3      30.24F
WACO-MCGREGOR  SUNNY     73  41  31 VRB3      30.24F
HILLSBORO      SUNNY     73  43  34 CALM      30.24F
CORSICANA      SUNNY     72  41  32 E6        30.25F
MEXIA          SUNNY     72  37  28 CALM      30.23F
HEARNE         SUNNY     73  43  34 N5        30.24F
CAMERON        SUNNY     74  44  33 CALM      30.23F
TEMPLE         SUNNY     73  41  31 N5        30.24F
KILLEEN        SUNNY     72  42  34 NE3       30.22F
KILLEEN-SKYLRK SUNNY     72  45  37 E5        30.24F
FORT HOOD      SUNNY     71  43  36 W3        30.21F
GATESVILLE     SUNNY     73  43  33 NE5       30.25F
HAMILTON       SUNNY     74  42  31 E3        30.25F
LAMPASAS       SUNNY     73  43  34 SE3       30.23F
$$

TXZ095>097-106>112-122>126-135>138-148>153-164>167-172000-
EAST TEXAS

CITY           SKY/WX    TMP DP  RH WIND       PRES   REMARKS
PARIS          SUNNY     69  40  34 E5        30.25F
SULPHUR SPRNGS SUNNY     72  37  28 E5        30.26F
MOUNT PLEASANT SUNNY     70  41  34 CALM      30.26F
GILMER         SUNNY     69  38  32 NE7       30.25F
MINEOLA        SUNNY     72  41  33 E3        30.24F
TYLER          SUNNY     72  36  26 NE6       30.24F
LONGVIEW       SUNNY     73  40  30 E6        30.23F
MARSHALL       SUNNY     73  37  27 E5        30.26F
ATHENS         SUNNY     70  39  32 CALM      30.22F
PALESTINE      SUNNY     72  43  35 S5        30.25F
JACKSONVILLE   SUNNY     72  40  31 E5        30.25F
HENDERSON      SUNNY     73  39  28 NE5       30.24F
CENTER         CLEAR     74  45  35 N7        30.23F
NACOGDOCHES    SUNNY     73  43  33 VRB5      30.23F
LUFKIN         SUNNY     72  45  37 VRB6      30.22F
$$

SUPPLEMENTAL OBSERVATIONS (NWS FORT WORTH AREA)

CITY           SKY/WX    TMP DP  RH WIND       PRES   REMARKS
DENISON DAM      N/A     70  39  32 S2          N/A
CADDO GRASSLND   N/A     72  39  30 S5          N/A
PAT MAYSE LAKE   N/A     70  36  28 SE3         N/A
GREENVILLE       N/A     73  39  29 E5          N/A
CEDAR HILL       N/A     73  37  27 SW5         N/A
LBJ GRASSLAND    N/A     73  41  31 S7          N/A
POSSUM KINGDOM   N/A     75  39  27 S8          N/A
GRANBURY         N/A     75  43  31 SE7         N/A
COMANCHE         N/A     75  37  25 SE7         N/A
MCGREGOR         N/A     73  37  27 SE3         N/A
TEMPLE           N/A     75  39  27 NE2         N/A
LAKE LIMESTONE   N/A     73  34  23 NE7         N/A
ATHENS           N/A     72  37  28 SE8         N/A
$$

SUPPLEMENTAL OBSERVATIONS (NWS NORMAN AREA)

CITY           SKY/WX    TMP DP  RH WIND       PRES   REMARKS
GOODLETT         N/A     78  33  19 S18       30.15F
ODELL            N/A     75  37  24 S14       30.19F
CROWELL          N/A     78  37  22 S15       30.18F
KNOX CITY        N/A     79  32  18 S16       30.19F
SEYMOUR          N/A     76  36  23 S13       30.19F
MILLERS CREEK    N/A     77  39  25 S12         N/A
$$

SUPPLEMENTAL OBSERVATIONS (NWS SAN ANGELO AREA)

CITY           SKY/WX    TMP DP  RH WIND       PRES   REMARKS
WEINERT          N/A     78  37  22 S10       30.20F
HASKELL          N/A     77  31  19 S13G18    30.20F
THROCKMORTON     N/A     77  40  26 S9        30.21F
STAMFORD         N/A     77  38  25 S10       30.21F
CLYDE            N/A     75  39  27 S9        30.23F
HAMBY            N/A     77  36  22 SW10        N/A
IVIE RESERVOIR   N/A     79  32  18 SE8         N/A
COLORADO BEND    N/A     75  37  25 SW5         N/A
$$

SUPPLEMENTAL OBSERVATIONS (NWS SHREVEPORT AREA)

CITY           SKY/WX    TMP DP  RH WIND       PRES   REMARKS
CLARKSVILLE      N/A     72  37  28 E3          N/A
TEXARKANA        N/A     72  39  30 N5          N/A
LINDEN           N/A     73  37  27 NW3         N/A
CADDO LAKE       N/A     73  37  27 NE6         N/A
GILMER           N/A     73  39  29 NE3         N/A
HENDERSON        N/A     75  37  25 N5          N/A
LUFKIN           N/A     73  45  35 MISG        N/A
N SABINE NF      N/A     73  48  40 MISG        N/A
S SABINE NF      N/A     72  46  40 N6          N/A
$$

SUPPLEMENTAL OBSERVATIONS ARE A COLLECTION OF AUTOMATED INSTRUMENTS
THAT ARE MAINTAINED BY A VARIETY OF FEDERAL AND STATE AGENCIES.
CERTAIN ELEMENTS...SUCH AS HUMIDITY VALUES AND SUSTAINED WIND
SPEEDS...MAY BE APPROXIMATED.





USA.gov is the U.S. government's official web portal to all federal, state and local government web resources and services.